Retour au catalogue

NETSAT-3

ActifSciencePO
NORAD 46505·PAYLOAD·🇩🇪 Germany

Lancé Sep 28, 2020 depuis Plesetsk Cosmodrome

Loading…

Prochains Passages (prochaines 24 heures)

TLE

FraisSource: Space-Track

Époque: Sep 14, 2026, 11:53 UTC

1 46505U 20068V   26257.49537097  .00015253  00000-0  31964-3 0  9994
2 46505  97.8664 271.2262 0005483  39.1736 320.9907 15.45510480329460

Suivez NETSAT-3 en temps réel avec AllMySat

Download on the App Store